Starlink 31055

operational
NORAD ID: 58539 Int'l Des: 2023-192 Owner: SPXS Country: US Constellation: starlink
LEOCIRCULAR

Starlink 31055について

説明を読み込み中...

リアルタイム位置

3D地球を読み込み中...

次回通過

高度履歴

Altitude vs Time

uPlot chart will show altitude changes over time

軌道要素

1 58539U 23192J 25258.44850663 .00000039 00000-0 13458-4 0 9992
2 58539 53.1614 156.8262 0001329 81.9342 278.1810 15.30201058 99150
Epoch: Sep 15, 2025 • Age: 23 hours

現在のステータス

高度 484.8 km
速度 7.62 km/s
衛星直下点 -29.93°S, 20.35°W
打ち上げ日 Dec 8, 2023
運用期間 1.7 years
タイプ internet

技術仕様

分類 Payload
質量 730.00 kg
乾燥質量 700.00 kg
総質量 730.00 kg
長さ 0.30 m
直径 4.10 m
スパン 29.00 m
形状 Box + pan
製造者 SPXS
バスタイプ Starlink V2M
フェーズステータス In Orbit
所有者/国 SPXS/US

大規模コンステレーション

Loading constellations...